This demonstration page uses our WeatherBlox Daily Observations layout. Learn more.

Left ArrowRight Arrow

Hourly Observations for May 24, 2019

Temp ( °F °C ) Dew Point ( °F °C ) Humidity (%) Winds ( mph kmh ) Pressure ( in mb ) Visibility ( mi km ) Precip ( " mm )
12:15 am 00:15 Clear 68 20 68 20 100 100 N N/A 30.09 1019 10 16.0934 N/A
12:35 am 00:35 Clear 66 19 66 19 100 100 N N/A 30.08 1019 10 16.0934 N/A
12:56 am 00:56 Clear 66 19 66 19 100 100 N N/A 30.08 1019 7 11.26538 N/A
1:15 am 01:15 Clear 66 19 66 19 100 100 N N/A 30.08 1019 7 11.26538 N/A
1:35 am 01:35 Clear 64 18 64 18 100 100 N N/A 30.08 1019 5 8.0467 N/A
1:55 am 01:55 Mostly Cloudy 64 18 64 18 100 100 N N/A 30.08 1019 0.5 0.80467 N/A
2:15 am 02:15 Clear 63 17 63 17 100 100 N N/A 30.09 1019 2.5 4.02335 N/A
2:36 am 02:36 Clear 63 17 63 17 100 100 N N/A 30.09 1019 7 11.26538 N/A
2:55 am 02:55 Clear 63 17 63 17 100 100 N N/A 30.09 1019 7 11.26538 N/A
3:15 am 03:15 Partly Cloudy 63 17 63 17 100 100 N N/A 30.08 1019 5 8.0467 N/A
3:35 am 03:35 Clear 63 17 63 17 100 100 N N/A 30.08 1019 10 16.0934 N/A
3:55 am 03:55 Clear 61 16 61 16 100 100 N N/A 30.09 1019 2 3.21868 N/A
4:15 am 04:15 Mostly Cloudy 61 16 61 16 100 100 N N/A 30.09 1019 1 1.60934 N/A
4:35 am 04:35 Clear 61 16 61 16 100 100 N N/A 30.09 1019 5 8.0467 N/A
4:55 am 04:55 Clear 61 16 61 16 100 100 N N/A 30.1 1019 4 6.43736 N/A
5:15 am 05:15 Clear 59 15 59 15 100 100 N N/A 30.1 1019 4 6.43736 N/A
5:35 am 05:35 Clear 59 15 59 15 100 100 N N/A 30.1 1019 5 8.0467 N/A
5:55 am 05:55 Partly Cloudy 59 15 59 15 100 100 N N/A 30.1 1019 7 11.26538 N/A
6:15 am 06:15 Clear 59 15 59 15 100 100 E 3 6 30.09 1019 5 8.0467 N/A
6:35 am 06:35 Sunny 59 15 59 15 100 100 N N/A 30.11 1020 5 8.0467 N/A
6:56 am 06:56 Partly Cloudy 59 15 59 15 100 100 N N/A 30.11 1020 5 8.0467 N/A
7:15 am 07:15 Cloudy 61 16 61 16 100 100 N N/A 30.11 1020 10 16.0934 N/A
7:35 am 07:35 Cloudy 63 17 63 17 100 100 N N/A 30.11 1020 7 11.26538 N/A
7:55 am 07:55 Cloudy 63 17 63 17 100 100 N N/A 30.12 1020 10 16.0934 N/A
8:15 am 08:15 Cloudy 64 18 64 18 100 100 N N/A 30.11 1020 10 16.0934 N/A
8:36 am 08:36 Cloudy 66 19 66 19 100 100 N N/A 30.11 1020 10 16.0934 N/A
8:55 am 08:55 Mostly Cloudy 66 19 66 19 100 100 SE 5 7 30.1 1019 10 16.0934 N/A
9:15 am 09:15 Mostly Cloudy 66 19 66 19 100 100 S 3 6 30.11 1020 10 16.0934 N/A
9:35 am 09:35 Cloudy 68 20 68 20 100 100 SSW 8 13 30.12 1020 10 16.0934 N/A
9:55 am 09:55 Mostly Cloudy 66 19 66 19 100 100 SSE 6 9 30.11 1020 10 16.0934 N/A
10:15 am 10:15 Mostly Cloudy 70 21 68 20 94 94 SSE 5 7 30.11 1019 10 16.0934 N/A
10:35 am 10:35 Mostly Cloudy 72 22 68 20 88 88 S 9 15 30.09 1019 10 16.0934 N/A
10:55 am 10:55 Partly Cloudy 72 22 70 21 94 94 S 8 13 30.09 1019 10 16.0934 N/A
11:15 am 11:15 Sunny 73 23 72 22 94 94 SSE 5 7 30.09 1019 10 16.0934 N/A
11:35 am 11:35 Sunny 77 25 73 23 89 89 S 7 11 30.07 1018 10 16.0934 N/A
11:56 am 11:56 Sunny 77 25 75 24 94 94 SSW 6 9 30.07 1018 10 16.0934 N/A
12:15 pm 12:15 Mostly Cloudy 73 23 70 21 89 89 NNE 14 22 30.09 1019 10 16.0934 N/A
12:35 pm 12:35 Cloudy 68 20 66 19 94 94 NE 14 22 30.11 1020 10 16.0934 N/A
12:55 pm 12:55 Mostly Cloudy 70 21 68 20 94 94 ENE 13 20 30.11 1019 10 16.0934 N/A
1:15 pm 13:15 Partly Cloudy 72 22 68 20 88 88 E 8 13 30.1 1019 10 16.0934 N/A
1:35 pm 13:35 Sunny 73 23 70 21 89 89 ENE 8 13 30.09 1019 10 16.0934 N/A
1:55 pm 13:55 Sunny 75 24 72 22 89 89 ENE 7 11 30.09 1019 10 16.0934 N/A
2:15 pm 14:15 Sunny 77 25 72 22 83 83 NE 8 13 30.08 1019 10 16.0934 N/A
2:35 pm 14:35 Sunny 77 25 72 22 83 83 E 7 11 30.07 1018 10 16.0934 N/A
2:55 pm 14:55 Sunny 77 25 72 22 83 83 N N/A 30.07 1018 10 16.0934 N/A
3:15 pm 15:15 Sunny 79 26 73 23 84 84 ESE 5 7 30.07 1018 10 16.0934 N/A
3:35 pm 15:35 Sunny 81 27 73 23 79 79 N N/A 30.07 1018 10 16.0934 N/A
3:55 pm 15:55 Sunny 82 28 73 23 74 74 W 3 6 30.06 1018 10 16.0934 N/A
4:15 pm 16:15 Sunny 84 29 75 24 74 74 W 3 6 30.05 1018 10 16.0934 N/A
4:36 pm 16:36 Sunny 84 29 73 23 70 70 W 3 6 30.04 1017 10 16.0934 N/A
4:55 pm 16:55 Sunny 84 29 73 23 70 70 SSW 3 6 30.04 1017 10 16.0934 N/A
5:15 pm 17:15 Partly Cloudy 84 29 73 23 70 70 SSW 5 7 30.03 1017 10 16.0934 N/A
5:35 pm 17:35 Partly Cloudy 84 29 73 23 70 70 SSW 8 13 30.02 1017 10 16.0934 N/A
5:55 pm 17:55 Partly Cloudy 84 29 73 23 70 70 S 10 17 30.01 1016 10 16.0934 N/A
6:15 pm 18:15 Partly Cloudy 84 29 73 23 70 70 SW 10 17 30.01 1016 10 16.0934 N/A
6:35 pm 18:35 Partly Cloudy 84 29 72 22 66 66 SW 10 17 29.99 1016 10 16.0934 N/A
6:55 pm 18:55 Sunny 84 29 72 22 66 66 SSW 13 20 29.98 1015 10 16.0934 N/A
7:15 pm 19:15 Sunny 84 29 72 22 66 66 SW 13 20 29.98 1015 10 16.0934 N/A
7:35 pm 19:35 Sunny 82 28 72 22 70 70 SSW 13 20 29.96 1015 10 16.0934 N/A
7:55 pm 19:55 Sunny 82 28 72 22 70 70 SSW 10 17 29.96 1015 10 16.0934 N/A
8:15 pm 20:15 Sunny 82 28 72 22 70 70 S 9 15 29.95 1014 10 16.0934 N/A
8:36 pm 20:36 Sunny 81 27 70 21 70 70 SSW 9 15 29.97 1015 10 16.0934 N/A
8:55 pm 20:55 Sunny 79 26 70 21 74 74 S 12 19 29.95 1014 10 16.0934 N/A
9:15 pm 21:15 Clear 79 26 70 21 74 74 SSW 7 11 29.96 1015 10 16.0934 N/A
9:35 pm 21:35 Clear 77 25 70 21 79 79 S 8 13 29.95 1014 10 16.0934 N/A
9:55 pm 21:55 Clear 75 24 70 21 83 83 N N/A 29.97 1015 10 16.0934 N/A
10:15 pm 22:15 Clear 75 24 68 20 78 78 N N/A 29.98 1015 10 16.0934 N/A
10:35 pm 22:35 Clear 73 23 68 20 83 83 N N/A 29.98 1015 10 16.0934 N/A
10:55 pm 22:55 Clear 73 23 68 20 83 83 N N/A 29.99 1016 10 16.0934 N/A
11:15 pm 23:15 Clear 68 20 68 20 100 100 N N/A 30.01 1016 10 16.0934 N/A
11:35 pm 23:35 Clear 70 21 68 20 94 94 N N/A 30.02 1016 10 16.0934 N/A
11:55 pm 23:55 Clear 68 20 68 20 100 100 N N/A 30.02 1017 10 16.0934 N/A

Powered by AerisWeather